Weather History for K3R7 - March, 2013

Change the Weather History Date:

Saturday, March 16, 2013

  Actual Average (KLCH) Record (KLCH)
Temperature  
Mean Temperature 64 °F 61 °F  
Max Temperature 74 °F 72 °F 86 °F (1907)
Min Temperature 55 °F 51 °F 25 °F (1913)
Degree Days  
Heating Degree Days 1 5  
Month to date heating degree days 104  
Since 1 July heating degree days 1386  
Cooling Degree Days 0 2  
Month to date cooling degree days 19  
Year to date cooling degree days 42  
Growing Degree Days 14 (Base 50)    
Moisture  
Dew Point 56 °F    
Average Humidity 78    
Maximum Humidity 97    
Minimum Humidity 54    
Precipitation  
Precipitation 0.00 in 0.12 in 1.71 in (1998)
Month to date precipitation 1.90  
Year to date precipitation 10.59  
Snow  
Snow 0.00 in 0.00 in 0.00 in ()
Month to date snowfall 0.0  
Since 1 July snowfall 0.1  
Snow Depth -    
Sea Level Pressure  
Sea Level Pressure 30.01 in    
Wind  
Wind Speed 6 mph (South)    
Max Wind Speed 17 mph    
Max Gust Speed 30 mph    
Visibility 10 miles    
Events      
T = Trace of Precipitation, MM = Missing Value Source: NWS Daily Summary

Daily Weather History Graph

Daily Weather History Graph

Search for Another Location

Airport or City:

Trip Planner

Search our weather history database for the weather conditions in past years. The results will help you decide how hot, cold, wet, or windy it might be!

Date:

Astronomy

Mar. 16, 2013 Rise Set
Actual Time 7:19 AM CDT 7:19 PM CDT
Civil Twilight 6:55 AM CDT 7:43 PM CDT
Nautical Twilight 6:27 AM CDT 8:11 PM CDT
Astronomical Twilight 5:59 AM CDT 8:39 PM CDT
Moon 10:10 AM CDT (3/16) No Moon Set
Length of Visible Light 12h 48m
Length of Day
12h 00m
Waxing Crescent, 23% of the Moon is Illuminated
Mar 16
Waxing Crescent
Mar 19
First Quarter
Mar 27
Full
Apr 2
Last Quarter
Apr 10
New

Hourly Weather History & Observations

Time (CDT) Temp. Dew Point Humidity Pressure Visibility Wind Dir Wind Speed Gust Speed Precip Events Conditions
12:15 AM 57.9 °F 56.3 °F 94% 30.10 in 10.0 mi South 5.8 mph - N/A   Clear
12:35 AM 58.5 °F 56.3 °F 93% 30.10 in 10.0 mi South 4.6 mph - N/A   Clear
12:55 AM 58.6 °F 56.3 °F 92% 30.09 in 10.0 mi South 5.8 mph - N/A   Clear
1:15 AM 58.3 °F 55.8 °F 91% 30.09 in 10.0 mi South 3.5 mph - N/A   Clear
1:35 AM 57.7 °F 55.4 °F 92% 30.07 in 10.0 mi South 4.6 mph - N/A   Clear
1:55 AM 57.4 °F 55.0 °F 92% 30.07 in 10.0 mi South 3.5 mph - N/A   Clear
2:15 AM 57.4 °F 54.9 °F 91% 30.06 in 10.0 mi South 4.6 mph - N/A   Clear
2:35 AM 56.8 °F 54.7 °F 92% 30.05 in 10.0 mi Calm Calm - N/A   Clear
2:55 AM 56.7 °F 54.5 °F 92% 30.05 in 10.0 mi Calm Calm - N/A   Clear
3:15 AM 56.3 °F 54.3 °F 93% 30.04 in 10.0 mi South 3.5 mph - N/A   Clear
3:35 AM 56.7 °F 54.5 °F 92% 30.04 in 10.0 mi South 3.5 mph - N/A   Clear
3:55 AM 56.7 °F 54.7 °F 93% 30.04 in 10.0 mi Calm Calm - N/A   Clear
4:15 AM 55.4 °F 54.1 °F 96% 30.03 in 10.0 mi Calm Calm - N/A   Clear
4:35 AM 55.4 °F 54.5 °F 97% 30.03 in 10.0 mi South 3.5 mph - N/A   Clear
4:55 AM 55.6 °F 54.7 °F 97% 30.02 in 10.0 mi Calm Calm - N/A   Clear
5:15 AM 55.8 °F 54.9 °F 97% 30.03 in 10.0 mi South 3.5 mph - N/A   Clear
5:35 AM 55.8 °F 54.9 °F 97% 30.03 in 10.0 mi Calm Calm - N/A   Scattered Clouds
5:55 AM 55.8 °F 54.9 °F 97% 30.03 in 10.0 mi South 3.5 mph - N/A   Scattered Clouds
6:15 AM 55.8 °F 55.0 °F 97% 30.03 in 10.0 mi South 3.5 mph - N/A   Mostly Cloudy
6:35 AM 56.1 °F 55.2 °F 97% 30.03 in 10.0 mi SSE 3.5 mph - N/A   Overcast
6:55 AM 56.3 °F 55.4 °F 97% 30.04 in 10.0 mi SSE 3.5 mph - N/A   Overcast
7:15 AM 57.2 °F 55.9 °F 96% 30.04 in 10.0 mi SSE 3.5 mph - N/A   Mostly Cloudy
7:35 AM 57.2 °F 56.3 °F 97% 30.04 in 10.0 mi South 4.6 mph - N/A   Mostly Cloudy
7:55 AM 57.7 °F 56.5 °F 96% 30.05 in 10.0 mi Calm Calm - N/A   Overcast
8:15 AM 58.3 °F 57.2 °F 96% 30.05 in 10.0 mi SSE 3.5 mph - N/A   Overcast
8:35 AM 59.9 °F 58.1 °F 94% 30.05 in 10.0 mi South 6.9 mph - N/A   Mostly Cloudy
8:55 AM 61.3 °F 58.8 °F 91% 30.05 in 10.0 mi South 6.9 mph - N/A   Mostly Cloudy
9:15 AM 62.8 °F 59.2 °F 88% 30.05 in 10.0 mi South 8.1 mph - N/A   Scattered Clouds
9:35 AM 64.6 °F 59.7 °F 84% 30.05 in 10.0 mi South 9.2 mph - N/A   Clear
9:55 AM 66.2 °F 59.2 °F 78% 30.05 in 10.0 mi South 11.5 mph 17.3 mph N/A   Clear
10:15 AM 67.3 °F 58.5 °F 73% 30.05 in 10.0 mi SSW 10.4 mph 20.7 mph N/A   Clear
10:35 AM 68.4 °F 57.9 °F 69% 30.05 in 10.0 mi South 11.5 mph 19.6 mph N/A   Clear
10:55 AM 69.1 °F 58.1 °F 68% 30.06 in 10.0 mi South 10.4 mph 19.6 mph N/A   Scattered Clouds
11:15 AM 70.0 °F 57.9 °F 65% 30.06 in 10.0 mi SSW 10.4 mph 18.4 mph N/A   Mostly Cloudy
11:35 AM 70.9 °F 56.3 °F 60% 30.06 in 10.0 mi SSW 10.4 mph 24.2 mph N/A   Overcast
11:55 AM 72.1 °F 56.3 °F 57% 30.06 in 10.0 mi SSW 17.3 mph 20.7 mph N/A   Overcast
12:15 PM 73.0 °F 56.7 °F 56% 30.05 in 10.0 mi SSW 9.2 mph 20.7 mph N/A   Overcast
12:35 PM 72.5 °F 56.1 °F 56% 30.05 in 10.0 mi North - - N/A   Mostly Cloudy
12:55 PM 71.2 °F 55.4 °F 57% 30.04 in 10.0 mi SW 10.4 mph - N/A   Mostly Cloudy
1:15 PM 72.3 °F 55.8 °F 56% 30.03 in 10.0 mi SSW 11.5 mph 24.2 mph N/A   Scattered Clouds
1:35 PM 73.9 °F 57.0 °F 55% 30.02 in 10.0 mi South 12.7 mph 24.2 mph N/A   Scattered Clouds
1:55 PM 73.9 °F 57.0 °F 55% 30.00 in 10.0 mi South 9.2 mph 21.9 mph N/A   Scattered Clouds
2:15 PM 73.4 °F 56.7 °F 56% 29.99 in 10.0 mi South 11.5 mph 27.6 mph N/A   Scattered Clouds
2:35 PM 73.6 °F 56.7 °F 55% 29.99 in 10.0 mi South 16.1 mph 21.9 mph N/A   Scattered Clouds
2:55 PM 73.4 °F 56.3 °F 55% 29.98 in 10.0 mi SSW 11.5 mph 25.3 mph N/A   Scattered Clouds
3:15 PM 73.4 °F 55.9 °F 54% 29.97 in 10.0 mi South 13.8 mph 23.0 mph N/A   Scattered Clouds
3:35 PM 73.9 °F 56.1 °F 54% 29.97 in 10.0 mi South 17.3 mph 25.3 mph N/A   Clear
3:55 PM 72.9 °F 55.4 °F 54% 29.96 in 10.0 mi SSW 10.4 mph 23.0 mph N/A   Scattered Clouds
4:15 PM 73.2 °F 56.5 °F 56% 29.95 in 10.0 mi South 12.7 mph 23.0 mph N/A   Scattered Clouds
4:35 PM 72.3 °F 56.3 °F 57% 29.94 in 10.0 mi South 11.5 mph 28.8 mph N/A   Clear
4:55 PM 72.5 °F 55.0 °F 54% 29.94 in 10.0 mi South 11.5 mph 29.9 mph N/A   Clear
5:15 PM 71.6 °F 54.9 °F 55% 29.94 in 10.0 mi South 11.5 mph 23.0 mph N/A   Clear
5:35 PM 71.6 °F 54.7 °F 55% 29.93 in 10.0 mi South 11.5 mph 21.9 mph N/A   Clear
5:55 PM 70.9 °F 54.5 °F 56% 29.93 in 10.0 mi South 13.8 mph 21.9 mph N/A   Clear
6:15 PM 70.2 °F 54.5 °F 57% 29.93 in 10.0 mi South 10.4 mph 25.3 mph N/A   Clear
6:35 PM 69.6 °F 55.8 °F 61% 29.94 in 10.0 mi South 11.5 mph 16.1 mph N/A   Clear
6:55 PM 68.2 °F 56.1 °F 65% 29.94 in 10.0 mi South 10.4 mph 18.4 mph N/A   Clear
7:15 PM 66.9 °F 56.8 °F 70% 29.94 in 10.0 mi South 8.1 mph - N/A   Clear
7:35 PM 65.7 °F 57.4 °F 75% 29.94 in 10.0 mi South 8.1 mph - N/A   Clear
7:55 PM 64.9 °F 58.5 °F 79% 29.94 in 10.0 mi South 9.2 mph - N/A   Clear
8:15 PM 64.0 °F 58.1 °F 81% 29.95 in 10.0 mi South 8.1 mph - N/A   Clear
8:35 PM 63.5 °F 57.9 °F 82% 29.95 in 10.0 mi South 6.9 mph - N/A   Clear
8:55 PM 62.8 °F 57.6 °F 83% 29.96 in 10.0 mi South 5.8 mph - N/A   Clear
9:15 PM 62.6 °F 58.1 °F 85% 29.96 in 10.0 mi South 6.9 mph - N/A   Clear
9:35 PM 62.6 °F 58.5 °F 86% 29.96 in 10.0 mi South 9.2 mph - N/A   Clear
9:55 PM 62.2 °F 58.5 °F 87% 29.97 in 10.0 mi South 5.8 mph - N/A   Clear
10:15 PM 61.9 °F 58.3 °F 88% 29.96 in 10.0 mi South 6.9 mph - N/A   Clear
10:35 PM 62.1 °F 58.1 °F 87% 29.96 in 10.0 mi South 5.8 mph - N/A   Clear
10:55 PM 61.7 °F 58.1 °F 88% 29.96 in 10.0 mi SSE 6.9 mph - N/A   Clear
11:15 PM 61.7 °F 58.3 °F 89% 29.95 in 10.0 mi SSE 4.6 mph - N/A   Clear
11:35 PM 61.3 °F 58.3 °F 90% 29.95 in 10.0 mi SSE 4.6 mph - N/A   Clear
11:55 PM 61.2 °F 58.5 °F 91% 29.94 in 10.0 mi SSE 4.6 mph - N/A   Clear